Wind_Speed
13 12 10 9 8 6 4 4 5 5 4 2 3 4 6 8 9 10 10 10 8 8 8 9 10 10 10 14 16 18 13 13 12 6 14 8 18 23 25 21 20 19 19 16 16
10 9 8 8 6 5 5 5 6 5 5 4 6 7 7 7 8 8 8 9 9 6 6 7 8 9 9 13 16 16 10 21 15 14 14 4 6 27 26 33 29 21 21 12 12
8 9 8 7 5 5 4 6 7 7 8 7 9 8 7 7 7 8 8 9 10 8 6 7 8 10 11 9 13 14 11 27 22 14 8 20 21 22 23 28 29 27 23 12 5
7 6 6 5 4 4 5 6 6 6 4 4 5 5 5 6 6 7 8 9 11 10 8 7 8 9 12 10 11 12 15 26 27 20 18 10 8 19 25 21 27 28 29 25 16
6 5 4 4 3 3 5 5 5 5 5 6 7 8 8 8 9 9 10 11 12 10 9 7 8 9 11 13 11 12 16 25 32 25 21 24 25 26 21 24 31 30 27 14 25
6 5 5 5 5 6 7 7 8 8 10 10 11 11 13 13 14 12 13 12 12 12 10 9 8 8 11 12 13 14 19 22 33 35 32 24 26 30 35 42 40 33 29 30 23
7 7 7 6 7 8 9 9 10 11 12 12 12 11 14 13 13 15 13 13 14 13 13 12 10 9 10 11 13 13 14 18 25 35 36 36 30 22 29 30 29 29 31 30 17
8 7 7 8 8 9 10 10 11 12 13 13 14 14 16 15 16 15 15 15 14 14 14 13 11 9 9 11 12 12 10 12 14 21 28 31 28 18 25 22 27 31 34 20 12
9 8 9 10 9 9 10 11 12 13 15 15 17 16 16 17 17 16 16 16 16 15 15 13 10 9 9 9 9 8 3 4 7 13 15 24 24 18 23 23 30 35 35 17 23
12 11 11 10 9 9 11 11 13 15 14 14 15 15 15 13 15 16 15 14 14 14 14 12 8 8 7 6 6 12 6 4 11 12 11 18 25 25 21 24 26 32 34 42 46
13 12 11 10 10 11 12 11 12 14 15 15 15 15 13 14 13 13 14 14 13 13 12 9 7 7 8 8 15 9 14 14 9 7 14 18 19 27 16 13 29 29 37 42 42
14 12 12 11 11 11 12 13 14 12 12 12 12 11 13 13 13 14 13 13 13 13 12 9 8 4 12 7 19 17 12 22 23 16 13 21 32 30 24 23 28 31 33 35 37
15 14 13 12 11 12 13 13 11 11 9 8 9 10 12 13 13 14 14 13 13 13 12 9 7 5 15 16 15 15 14 24 24 25 21 26 23 22 20 20 18 27 28 29 32
16 15 14 12 12 12 10 8 7 8 6 3 5 7 9 12 14 11 11 12 13 13 9 8 13 10 20 7 13 12 9 10 23 23 31 20 17 15 13 12 19 21 18 29 29
17 16 14 14 12 9 7 4 4 4 7 7 5 5 9 11 10 12 11 11 11 9 11 7 9 17 14 6 9 7 13 17 19 15 16 17 25 10 11 12 19 26 25 27 29
18 16 16 12 9 8 8 6 3 1 3 7 6 8 9 10 10 10 11 12 9 6 6 13 16 15 10 9 15 12 18 17 14 12 7 5 9 2 10 16 21 25 27 27 33
19 18 13 11 10 10 8 7 5 3 3 9 8 7 10 11 14 18 13 8 7 8 6 12 20 15 14 10 16 6 8 10 9 5 10 18 12 11 14 18 18 14 13 23 25
18 14 14 13 12 12 9 8 7 10 6 12 12 11 8 14 9 14 13 14 12 9 8 14 15 7 20 11 8 13 5 10 13 14 18 15 17 24 19 21 26 15 23 22 25
18 18 17 14 14 14 11 10 14 17 16 10 10 13 13 15 11 17 9 11 16 14 6 15 15 11 13 10 8 9 16 15 16 15 20 13 21 33 25 32 36 17 29 35 35
23 22 19 17 17 16 14 15 15 17 17 14 13 14 9 6 17 11 11 19 23 18 12 15 14 10 10 9 6 10 14 21 23 26 26 19 27 24 25 25 35 32 30 40 45
26 24 21 19 19 19 19 21 22 21 16 18 19 19 18 20 23 21 18 23 23 17 13 18 17 15 19 19 18 14 20 18 17 28 28 22 23 26 32 12 23 32 37 39 40
29 26 18 20 19 22 22 25 25 24 15 20 20 22 21 25 28 20 29 29 21 21 18 22 18 16 18 18 23 24 25 25 22 20 31 32 20 18 28 36 26 36 39 50 31
30 27 22 22 22 21 25 26 27 27 21 23 23 24 26 25 28 26 29 30 27 18 20 24 26 20 17 18 25 26 26 27 29 28 25 28 25 20 24 33 29 37 40 41 47
32 30 28 23 26 25 26 25 26 23 25 26 24 26 26 25 29 29 30 36 28 23 24 27 27 28 25 22 25 27 26 28 29 27 18 20 22 15 21 25 37 40 41 36 38
36 35 29 28 27 26 27 28 26 27 27 28 24 29 29 30 31 33 33 38 33 29 27 28 28 31 32 30 30 32 32 33 35 32 33 33 29 25 25 30 34 36 34 34 34
38 34 32 33 30 29 32 30 31 31 31 29 27 29 31 35 34 31 34 36 36 37 33 27 31 34 35 33 36 38 36 35 36 38 37 36 38 32 32 36 35 31 29 30 33
38 38 36 36 35 32 32 36 37 36 35 36 30 28 36 35 31 31 34 37 39 40 37 37 35 34 38 34 39 45 34 33 35 38 39 40 40 42 42 43 41 34 29 32 34
Wind_Direction
245 245 241 238 233 229 222 232 242 246 263 299 315 321 337 351 357 1 358 349 328 286 274 271 259 254 240 226 228 232 220 174 142 112 341 343 296 300 292 290 286 312 309 329 317
234 237 233 219 210 218 225 240 248 259 273 284 289 296 309 324 328 344 354 349 347 326 284 278 268 255 244 227 223 229 204 165 162 88 300 221 310 274 288 285 295 292 280 292 310
229 222 215 221 216 220 230 246 262 272 280 290 289 298 308 323 328 331 332 342 344 349 316 275 267 258 251 242 229 222 188 176 183 130 107 299 300 288 270 279 284 271 305 259 285
213 216 218 219 228 241 254 261 270 267 276 286 298 312 332 338 340 338 325 325 332 351 341 307 272 258 256 242 233 220 196 189 197 170 182 193 246 305 272 276 288 301 304 282 281
198 199 209 216 209 231 244 255 263 277 290 288 296 301 306 310 311 312 318 325 325 328 338 323 298 268 252 243 233 213 209 197 205 200 204 212 221 248 276 282 286 295 293 293 302
200 200 212 221 228 239 250 261 274 290 290 290 291 296 296 294 295 294 299 303 304 310 311 310 298 280 260 256 244 222 205 208 210 221 220 230 227 235 249 258 277 283 280 298 295
215 217 224 235 246 253 267 278 282 281 283 288 294 302 298 298 293 296 295 292 290 291 293 291 290 285 277 257 243 235 236 231 219 224 234 237 251 245 264 271 281 285 273 254 260
231 233 237 246 254 266 269 274 282 288 290 296 298 298 295 299 297 292 289 284 279 276 275 274 277 278 275 259 264 259 258 262 259 244 246 249 258 264 266 285 267 282 291 341 246
239 240 241 247 251 259 273 282 288 290 295 298 298 297 296 296 296 295 290 282 276 271 268 269 269 266 268 267 254 236 222 312 288 279 260 253 261 261 276 273 276 291 298 304 317
234 235 240 244 256 271 279 284 288 290 293 295 295 297 297 301 301 297 293 286 277 270 266 260 257 258 251 254 228 220 216 358 336 7 289 295 293 303 274 248 261 281 293 287 288
240 239 241 254 265 273 273 277 282 288 291 289 293 295 299 298 300 302 298 290 277 262 259 258 237 246 223 198 171 203 216 224 204 265 270 268 271 270 278 241 250 260 268 284 293
237 242 248 257 265 272 279 284 283 283 285 288 291 296 304 313 309 305 299 290 277 262 253 225 221 213 216 205 204 228 254 207 187 195 219 247 263 279 277 266 261 272 281 284 289
236 241 250 254 263 276 286 285 291 293 281 291 293 306 313 316 316 309 302 296 282 270 247 225 204 299 267 242 257 247 249 222 209 210 223 245 257 273 269 256 268 292 307 304 310
237 242 245 253 270 278 284 295 292 280 299 319 337 332 325 327 323 328 317 303 289 268 250 207 172 261 269 285 262 245 222 229 225 241 235 245 270 267 271 300 299 294 302 310 308
241 242 246 256 260 272 280 276 267 284 318 335 354 333 326 323 326 339 335 323 307 281 252 196 193 277 281 280 310 234 221 219 235 253 259 259 270 310 260 261 280 307 296 300 294
236 238 243 249 259 259 252 254 243 270 290 309 322 315 308 299 331 350 334 324 313 304 295 188 200 239 285 254 241 279 247 267 268 278 300 172 270 22 255 254 264 290 301 294 297
236 237 239 249 242 243 251 245 248 224 283 293 305 300 315 329 314 317 335 326 308 274 221 191 218 244 260 269 247 284 259 266 246 255 300 292 278 333 296 257 262 274 292 276 287
234 237 240 237 235 239 242 250 237 246 244 256 282 285 280 237 267 274 308 316 304 306 268 240 249 245 230 245 176 218 313 272 263 222 264 283 270 249 221 236 249 204 225 229 243
232 234 234 236 237 239 237 243 236 243 255 287 272 270 267 268 277 284 277 283 278 305 282 271 260 281 285 242 272 289 251 251 281 238 250 268 254 249 247 222 228 215 252 254 247
233 231 234 235 237 237 239 239 251 263 259 260 264 262 244 273 284 276 238 254 266 268 258 265 268 259 245 258 266 297 271 241 255 266 252 243 259 278 253 256 231 228 243 253 252
235 234 238 242 241 236 233 238 245 255 254 248 246 255 258 222 233 255 256 253 277 283 255 254 267 260 265 265 258 246 264 272 259 266 272 270 246 275 286 240 244 236 236 246 248
236 238 242 247 243 235 234 242 249 260 248 250 246 248 253 254 262 254 248 266 277 284 270 277 270 257 253 264 265 262 262 275 268 248 254 258 256 306 296 270 287 255 268 258 259
239 243 230 246 246 243 243 246 245 255 247 252 252 249 252 254 260 259 254 258 270 278 265 266 270 266 254 249 253 259 264 263 265 274 269 272 276 268 281 279 291 283 281 282 287
236 241 241 242 245 245 248 248 252 250 253 251 255 254 258 264 263 259 254 264 263 266 261 263 266 268 265 261 263 262 262 267 272 274 272 259 275 267 257 279 281 285 295 295 293
234 239 248 244 250 254 257 257 254 256 251 257 254 258 259 260 257 260 254 257 269 265 261 267 269 265 266 265 258 266 268 268 273 273 271 276 274 279 275 258 272 284 290 299 295
238 242 244 249 246 245 252 255 257 258 259 254 255 261 269 268 266 266 266 266 269 275 272 258 261 269 271 269 266 262 258 263 266 273 276 277 277 277 274 271 270 275 288 290 289
237 241 244 249 251 250 251 249 252 255 259 268 266 265 267 269 269 266 259 258 261 267 274 280 277 267 265 264 267 268 277 266 263 264 270 276 277 269 266 267 268 274 285 285 294
Height
5866 5867 5867 5868 5869 5871 5872 5872 5874 5875 5874 5875 5876 5876 5876 5876 5876 5875 5875 5876 5875 5875 5875 5877 5878 5879 5879 5880 5882 5882 5887 5890 5892 5891 5897 5897 5894 5895 5886 5887 5881 5890 5888 5889 5888
5864 5865 5865 5867 5868 5869 5870 5872 5874 5874 5874 5873 5875 5875 5875 5875 5875 5875 5875 5874 5874 5873 5873 5874 5875 5876 5877 5877 5878 5881 5885 5888 5888 5886 5893 5893 5895 5886 5891 5883 5884 5888 5888 5886 5885
5862 5863 5864 5865 5865 5867 5869 5871 5872 5872 5873 5872 5872 5873 5874 5873 5873 5873 5873 5873 5873 5872 5871 5872 5873 5874 5875 5876 5876 5878 5884 5884 5884 5885 5887 5890 5891 5890 5885 5881 5878 5887 5887 5886 5882
5860 5861 5862 5863 5864 5865 5868 5869 5870 5871 5871 5871 5871 5872 5872 5872 5873 5872 5872 5871 5872 5870 5870 5870 5871 5873 5873 5874 5874 5876 5879 5881 5882 5881 5885 5887 5889 5884 5881 5883 5880 5881 5883 5886 5881
5858 5859 5861 5862 5862 5864 5866 5867 5868 5868 5869 5869 5869 5870 5870 5872 5871 5871 5871 5870 5870 5869 5869 5869 5869 5870 5871 5871 5871 5873 5875 5877 5879 5879 5880 5883 5885 5884 5879 5874 5881 5883 5883 5885 5884
5856 5857 5859 5861 5861 5863 5864 5865 5866 5865 5867 5867 5867 5868 5869 5869 5868 5868 5867 5867 5868 5868 5866 5867 5867 5867 5868 5869 5869 5869 5869 5873 5876 5876 5876 5877 5880 5881 5878 5877 5882 5880 5882 5884 5884
5855 5856 5857 5859 5860 5861 5862 5863 5863 5863 5864 5864 5864 5864 5865 5866 5866 5864 5864 5865 5864 5864 5864 5864 5864 5864 5865 5866 5866 5866 5868 5869 5871 5872 5873 5875 5875 5878 5874 5876 5876 5873 5874 5874 5875
5853 5854 5855 5857 5857 5858 5859 5859 5860 5860 5861 5860 5861 5862 5861 5861 5860 5861 5861 5861 5861 5861 5861 5861 5861 5862 5863 5863 5864 5865 5866 5868 5870 5870 5871 5873 5873 5876 5871 5871 5864 5867 5867 5874 5870
5850 5852 5853 5855 5855 5856 5856 5856 5857 5858 5857 5857 5858 5858 5858 5857 5857 5857 5857 5857 5857 5856 5857 5857 5857 5858 5860 5861 5862 5864 5864 5866 5868 5867 5869 5869 5870 5874 5871 5864 5859 5858 5858 5858 5859
5848 5849 5851 5851 5852 5852 5853 5853 5854 5854 5854 5853 5854 5856 5855 5854 5853 5853 5853 5853 5853 5853 5853 5854 5854 5856 5857 5859 5861 5859 5859 5862 5864 5868 5867 5866 5866 5869 5869 5870 5860 5856 5855 5857 5860
5845 5846 5847 5848 5848 5849 5851 5852 5853 5852 5850 5850 5850 5850 5850 5850 5850 5850 5849 5849 5849 5849 5850 5851 5852 5853 5855 5856 5857 5857 5857 5859 5863 5864 5864 5864 5866 5864 5865 5865 5865 5862 5863 5861 5861
5841 5842 5844 5845 5846 5847 5848 5847 5847 5848 5846 5846 5846 5846 5847 5847 5847 5846 5846 5847 5846 5846 5847 5848 5848 5851 5850 5851 5853 5853 5855 5856 5859 5860 5861 5862 5861 5860 5862 5862 5859 5857 5856 5856 5851
5838 5839 5840 5842 5843 5844 5844 5844 5842 5841 5844 5844 5843 5843 5843 5843 5843 5844 5844 5844 5843 5843 5844 5844 5845 5847 5848 5849 5850 5852 5853 5855 5858 5857 5856 5855 5857 5856 5856 5857 5859 5853 5850 5846 5845
5834 5836 5837 5839 5841 5840 5840 5839 5838 5838 5839 5841 5840 5840 5841 5840 5840 5841 5841 5842 5841 5841 5841 5843 5845 5846 5844 5848 5847 5848 5850 5850 5851 5854 5854 5853 5851 5853 5853 5854 5855 5855 5853 5845 5842
5830 5832 5834 5835 5836 5836 5837 5837 5837 5836 5835 5837 5838 5839 5839 5839 5840 5838 5839 5838 5838 5838 5839 5841 5844 5844 5845 5845 5844 5846 5845 5845 5847 5848 5849 5852 5850 5852 5851 5850 5852 5852 5849 5847 5847
5827 5828 5831 5832 5832 5833 5834 5834 5834 5835 5834 5834 5835 5836 5836 5836 5835 5837 5837 5836 5835 5836 5836 5838 5839 5840 5841 5841 5840 5842 5842 5843 5845 5847 5849 5848 5848 5850 5851 5851 5848 5850 5847 5846 5837
5822 5825 5826 5827 5829 5830 5830 5831 5832 5832 5833 5833 5833 5833 5833 5832 5834 5833 5834 5835 5834 5834 5833 5835 5836 5836 5836 5837 5839 5839 5840 5841 5843 5844 5844 5845 5847 5851 5850 5840 5841 5844 5847 5842 5840
5817 5819 5822 5824 5825 5826 5826 5828 5830 5829 5830 5830 5831 5832 5833 5834 5835 5833 5832 5831 5831 5832 5831 5831 5831 5831 5835 5836 5837 5836 5838 5839 5836 5837 5839 5843 5843 5841 5835 5834 5834 5835 5831 5828 5828
5811 5815 5819 5819 5820 5821 5823 5824 5825 5824 5826 5827 5829 5829 5831 5831 5832 5831 5831 5830 5829 5829 5832 5830 5830 5831 5831 5834 5836 5837 5835 5834 5831 5834 5834 5838 5829 5825 5822 5826 5828 5829 5830 5826 5822
5807 5811 5812 5813 5814 5816 5818 5819 5821 5821 5822 5824 5824 5826 5827 5828 5827 5828 5829 5825 5825 5825 5828 5828 5828 5829 5828 5829 5833 5831 5830 5832 5830 5829 5830 5832 5827 5826 5823 5821 5823 5824 5824 5822 5820
5801 5805 5805 5807 5808 5810 5812 5813 5813 5815 5818 5818 5819 5820 5823 5823 5821 5823 5823 5821 5821 5822 5824 5823 5825 5828 5827 5827 5825 5827 5824 5825 5827 5826 5824 5825 5826 5825 5816 5816 5821 5822 5818 5815 5814
5794 5797 5800 5800 5803 5803 5805 5806 5808 5808 5813 5812 5814 5814 5816 5817 5816 5819 5814 5815 5820 5819 5821 5820 5822 5822 5824 5825 5825 5821 5821 5819 5819 5823 5819 5818 5824 5823 5818 5813 5812 5814 5814 5810 5808
5787 5789 5794 5793 5795 5797 5797 5799 5801 5802 5806 5806 5808 5807 5808 5810 5812 5813 5810 5810 5811 5815 5815 5815 5814 5817 5819 5821 5818 5817 5817 5814 5812 5813 5816 5815 5817 5818 5813 5809 5806 5806 5805 5805 5802
5781 5780 5783 5787 5787 5790 5791 5794 5795 5797 5797 5798 5801 5801 5802 5804 5803 5805 5807 5801 5805 5807 5808 5808 5810 5810 5812 5814 5812 5811 5811 5810 5810 5810 5809 5810 5810 5813 5812 5805 5799 5801 5799 5799 5797
5771 5771 5776 5779 5782 5784 5785 5786 5788 5788 5790 5791 5794 5792 5794 5794 5794 5796 5797 5794 5795 5797 5800 5802 5803 5802 5803 5805 5806 5803 5803 5804 5802 5805 5805 5807 5805 5805 5806 5805 5802 5797 5796 5795 5793
5762 5766 5768 5769 5774 5776 5776 5778 5779 5779 5781 5783 5785 5785 5785 5783 5786 5789 5789 5790 5789 5787 5789 5794 5793 5792 5792 5795 5795 5793 5794 5795 5796 5796 5795 5795 5795 5798 5796 5795 5795 5796 5794 5791 5787
5753 5754 5759 5761 5763 5767 5769 5768 5769 5771 5773 5772 5778 5780 5774 5776 5780 5781 5781 5780 5778 5777 5779 5779 5781 5783 5781 5785 5781 5778 5789 5789 5789 5788 5787 5786 5786 5782 5782 5784 5786 5788 5787 5784 5782